| time (UTC) | temp F | wind direction | speed MPH | gust MPH | rain 1hr in | rain 24hr in | rain mn in | humidity % | barometer mb |
| 20260507225030 | 79 | 0.0 | 0.0 | 0.00 | 0.00 | 0.00 | 38 | 967.9 | |
| 20260507224030 | 79 | 0.0 | 0.0 | 0.00 | 0.00 | 0.00 | 38 | 967.8 | |
| 20260507223030 | 79 | 0.0 | 0.0 | 0.00 | 0.00 | 0.00 | 38 | 967.9 | |
| 20260507222030 | 79 | 0.0 | 0.0 | 0.00 | 0.00 | 0.00 | 39 | 968.0 | |
| 20260507221030 | 79 | 0.0 | 0.0 | 0.00 | 0.00 | 0.00 | 38 | 967.9 | |
| 20260507220030 | 79 | 0.0 | 0.0 | 0.00 | 0.00 | 0.00 | 38 | 967.8 | |
| 20260507215030 | 79 | 0.0 | 0.0 | 0.00 | 0.00 | 0.00 | 39 | 967.8 | |
| 20260507214030 | 79 | 0.0 | 0.0 | 0.00 | 0.00 | 0.00 | 39 | 967.8 | |
| 20260507213030 | 79 | 0.0 | 0.0 | 0.00 | 0.00 | 0.00 | 39 | 967.8 | |
| 20260507212030 | 79 | 0.0 | 0.0 | 0.00 | 0.00 | 0.00 | 40 | 967.8 | |
| 20260507211030 | 80 | 0.0 | 0.0 | 0.00 | 0.00 | 0.00 | 40 | 967.7 | |
| 20260507210030 | 80 | 0.0 | 0.0 | 0.00 | 0.00 | 0.00 | 40 | 967.6 | |
| 20260507205030 | 76 | 0.0 | 0.0 | 0.00 | 0.00 | 0.00 | 44 | 967.5 | |
| 20260507204031 | 76 | 0.0 | 0.0 | 0.00 | 0.00 | 0.00 | 43 | 967.4 | |
| 20260507203030 | 76 | 0.0 | 0.0 | 0.00 | 0.00 | 0.00 | 43 | 967.4 | |
| 20260507202030 | 76 | 0.0 | 0.0 | 0.00 | 0.00 | 0.00 | 42 | 967.3 | |
| 20260507201030 | 76 | 0.0 | 0.0 | 0.00 | 0.00 | 0.00 | 42 | 967.2 | |
| 20260507200030 | 76 | 0.0 | 0.0 | 0.00 | 0.00 | 0.00 | 42 | 967.1 | |
| 20260507195030 | 76 | 0.0 | 0.0 | 0.00 | 0.00 | 0.00 | 42 | 967.2 | |
| 20260507194030 | 76 | 0.0 | 0.0 | 0.00 | 0.00 | 0.00 | 42 | 967.2 | |
| 20260507193030 | 76 | 0.0 | 0.0 | 0.00 | 0.00 | 0.00 | 42 | 967.2 | |
| 20260507192030 | 76 | 0.0 | 0.0 | 0.00 | 0.00 | 0.00 | 41 | 967.1 | |
| 20260507191030 | 76 | 0.0 | 0.0 | 0.00 | 0.00 | 0.00 | 41 | 967.0 | |
| 20260507190030 | 76 | 0.0 | 0.0 | 0.00 | 0.00 | 0.00 | 41 | 966.9 | |
| 20260507185030 | 76 | 0.0 | 0.0 | 0.00 | 0.00 | 0.00 | 41 | 966.8 | |
| 20260507184030 | 76 | 0.0 | 0.0 | 0.00 | 0.00 | 0.00 | 41 | 966.6 | |
| 20260507183030 | 76 | 0.0 | 0.0 | 0.00 | 0.00 | 0.00 | 41 | 966.3 | |
| 20260507182030 | 76 | 0.0 | 0.0 | 0.00 | 0.00 | 0.00 | 41 | 966.2 | |
| 20260507181030 | 75 | 0.0 | 0.0 | 0.00 | 0.00 | 0.00 | 42 | 966.3 | |
| 20260507180030 | 75 | 0.0 | 0.0 | 0.00 | 0.00 | 0.00 | 42 | 966.3 | |
| 20260507175030 | 76 | 0.0 | 0.0 | 0.00 | 0.00 | 0.00 | 41 | 966.2 | |
| 20260507174030 | 76 | 0.0 | 0.0 | 0.00 | 0.00 | 0.00 | 41 | 966.1 | |
| 20260507173030 | 76 | 0.0 | 0.0 | 0.00 | 0.00 | 0.00 | 41 | 965.9 | |
| 20260507172030 | 76 | 0.0 | 0.0 | 0.00 | 0.00 | 0.00 | 41 | 965.8 | |
| 20260507171030 | 76 | 0.0 | 0.0 | 0.00 | 0.00 | 0.00 | 42 | 965.6 | |
| 20260507170030 | 76 | 0.0 | 0.0 | 0.00 | 0.00 | 0.00 | 41 | 965.5 | |
| 20260507165030 | 75 | 0.0 | 0.0 | 0.00 | 0.00 | 0.00 | 40 | 965.4 | |
| 20260507164030 | 75 | 0.0 | 0.0 | 0.00 | 0.00 | 0.00 | 41 | 965.2 | |
| 20260507163030 | 75 | 0.0 | 0.0 | 0.00 | 0.00 | 0.00 | 40 | 965.3 | |
| 20260507162030 | 75 | 0.0 | 0.0 | 0.00 | 0.00 | 0.00 | 41 | 965.2 | |
| 20260507161030 | 75 | 0.0 | 0.0 | 0.00 | 0.00 | 0.00 | 41 | 965.2 | |
| 20260507160030 | 75 | 0.0 | 0.0 | 0.00 | 0.00 | 0.00 | 41 | 965.0 | |
| 20260507155030 | 75 | 0.0 | 0.0 | 0.00 | 0.00 | 0.00 | 42 | 965.0 | |
| 20260507154030 | 75 | 0.0 | 0.0 | 0.00 | 0.00 | 0.00 | 42 | 965.0 | |
| 20260507153030 | 75 | 0.0 | 0.0 | 0.00 | 0.00 | 0.00 | 42 | 964.9 | |
| 20260507152030 | 75 | 0.0 | 0.0 | 0.00 | 0.00 | 0.00 | 42 | 964.8 | |
| 20260507151030 | 75 | 0.0 | 0.0 | 0.00 | 0.00 | 0.00 | 43 | 964.7 | |
| 20260507150030 | 75 | 0.0 | 0.0 | 0.00 | 0.00 | 0.00 | 43 | 964.8 | |
| 20260507145030 | 75 | 0.0 | 0.0 | 0.00 | 0.00 | 0.00 | 43 | 964.8 | |
| 20260507144030 | 75 | 0.0 | 0.0 | 0.00 | 0.00 | 0.00 | 44 | 964.7 | |
| 20260507143030 | 75 | 0.0 | 0.0 | 0.00 | 0.00 | 0.00 | 44 | 964.6 | |
| 20260507142030 | 75 | 0.0 | 0.0 | 0.00 | 0.00 | 0.00 | 44 | 964.6 | |
| 20260507141030 | 75 | 0.0 | 0.0 | 0.00 | 0.00 | 0.00 | 44 | 964.7 | |
| 20260507140030 | 75 | 0.0 | 0.0 | 0.00 | 0.00 | 0.00 | 45 | 964.7 | |
| 20260507135030 | 75 | 0.0 | 0.0 | 0.00 | 0.00 | 0.00 | 44 | 964.7 | |
| 20260507134030 | 75 | 0.0 | 0.0 | 0.00 | 0.00 | 0.00 | 43 | 964.5 | |
| 20260507133030 | 73 | 0.0 | 0.0 | 0.00 | 0.00 | 0.00 | 44 | 964.6 | |
| 20260507132030 | 71 | 0.0 | 0.0 | 0.00 | 0.00 | 0.00 | 42 | 964.7 | |
| 20260507131030 | 72 | 0.0 | 0.0 | 0.00 | 0.00 | 0.00 | 42 | 964.7 | |
| 20260507125030 | 77 | 0.0 | 0.0 | 0.00 | 0.00 | 0.00 | 46 | 964.3 | |
| 20260507124030 | 77 | 0.0 | 0.0 | 0.00 | 0.00 | 0.00 | 46 | 964.4 | |
| 20260507123030 | 76 | 0.0 | 0.0 | 0.00 | 0.00 | 0.00 | 47 | 964.4 | |
| 20260507122030 | 76 | 0.0 | 0.0 | 0.00 | 0.00 | 0.00 | 45 | 964.2 | |
| 20260507121030 | 76 | 0.0 | 0.0 | 0.00 | 0.00 | 0.00 | 45 | 964.1 | |
| 20260507120030 | 76 | 0.0 | 0.0 | 0.00 | 0.00 | 0.00 | 43 | 964.1 | |
| 20260507115030 | 76 | 0.0 | 0.0 | 0.00 | 0.00 | 0.00 | 42 | 964.0 | |
| 20260507114030 | 76 | 0.0 | 0.0 | 0.00 | 0.00 | 0.00 | 43 | 963.8 | |
| 20260507113030 | 76 | 0.0 | 0.0 | 0.00 | 0.00 | 0.00 | 43 | 963.8 | |
| 20260507112030 | 76 | 0.0 | 0.0 | 0.00 | 0.00 | 0.00 | 44 | 963.8 | |
| 20260507111030 | 76 | 0.0 | 0.0 | 0.00 | 0.00 | 0.00 | 45 | 963.7 | |
| 20260507110030 | 76 | 0.0 | 0.0 | 0.00 | 0.00 | 0.00 | 45 | 963.7 | |
| 20260507105030 | 77 | 0.0 | 0.0 | 0.00 | 0.00 | 0.00 | 43 | 963.5 | |
| 20260507104030 | 76 | 0.0 | 0.0 | 0.00 | 0.00 | 0.00 | 43 | 963.5 | |
| 20260507103031 | 76 | 0.0 | 0.0 | 0.00 | 0.00 | 0.00 | 43 | 963.3 | |
| 20260507102031 | 76 | 0.0 | 0.0 | 0.00 | 0.00 | 0.00 | 41 | 963.3 | |
| 20260507101030 | 76 | 0.0 | 0.0 | 0.00 | 0.00 | 0.00 | 42 | 963.3 | |
| 20260507100030 | 76 | 0.0 | 0.0 | 0.00 | 0.00 | 0.00 | 43 | 963.2 | |
| 20260507095030 | 75 | 0.0 | 0.0 | 0.00 | 0.00 | 0.00 | 41 | 963.1 | |
| 20260507094030 | 75 | 0.0 | 0.0 | 0.00 | 0.00 | 0.00 | 39 | 963.0 | |
| 20260507093030 | 75 | 0.0 | 0.0 | 0.00 | 0.00 | 0.00 | 39 | 963.0 | |
| 20260507092030 | 74 | 0.0 | 0.0 | 0.00 | 0.00 | 0.00 | 40 | 962.7 | |
| 20260507091030 | 77 | 0.0 | 0.0 | 0.00 | 0.00 | 0.00 | 43 | 962.5 | |
| 20260507090030 | 76 | 0.0 | 0.0 | 0.00 | 0.00 | 0.00 | 43 | 962.4 | |
| 20260507085030 | 77 | 0.0 | 0.0 | 0.00 | 0.00 | 0.00 | 43 | 962.3 | |
| 20260507084030 | 77 | 0.0 | 0.0 | 0.00 | 0.00 | 0.00 | 43 | 962.2 | |
| 20260507083030 | 78 | 0.0 | 0.0 | 0.00 | 0.00 | 0.00 | 43 | 962.2 | |
| 20260507082030 | 78 | 0.0 | 0.0 | 0.00 | 0.00 | 0.00 | 42 | 962.1 | |
| 20260507081030 | 78 | 0.0 | 0.0 | 0.00 | 0.00 | 0.00 | 40 | 962.1 | |
| 20260507080030 | 77 | 0.0 | 0.0 | 0.00 | 0.00 | 0.00 | 41 | 962.1 | |
| 20260507075030 | 77 | 0.0 | 0.0 | 0.00 | 0.00 | 0.00 | 41 | 961.9 | |
| 20260507074030 | 77 | 0.0 | 0.0 | 0.00 | 0.00 | 0.00 | 41 | 961.9 | |
| 20260507073030 | 76 | 0.0 | 0.0 | 0.00 | 0.00 | 0.00 | 41 | 961.8 | |
| 20260507072030 | 76 | 0.0 | 0.0 | 0.00 | 0.00 | 0.00 | 41 | 961.8 | |
| 20260507071030 | 76 | 0.0 | 0.0 | 0.00 | 0.00 | 0.00 | 41 | 961.7 | |
| 20260507070030 | 76 | 0.0 | 0.0 | 0.00 | 0.00 | 0.00 | 41 | 961.6 | |
| 20260507065030 | 76 | 0.0 | 0.0 | 0.00 | 0.00 | 0.00 | 41 | 961.4 | |
| 20260507064030 | 75 | 0.0 | 0.0 | 0.00 | 0.00 | 0.00 | 41 | 961.5 | |
| 20260507063030 | 75 | 0.0 | 0.0 | 0.00 | 0.00 | 0.00 | 41 | 961.2 | |
| 20260507062030 | 76 | 0.0 | 0.0 | 0.00 | 0.00 | 0.00 | 42 | 961.2 | |
| 20260507061030 | 76 | 0.0 | 0.0 | 0.00 | 0.00 | 0.00 | 42 | 961.1 | |
| 20260507060030 | 76 | 0.0 | 0.0 | 0.00 | 0.00 | 0.00 | 43 | 961.1 | |
| 20260507055030 | 76 | 0.0 | 0.0 | 0.00 | 0.00 | 0.00 | 42 | 961.0 | |
| 20260507054030 | 76 | 0.0 | 0.0 | 0.00 | 0.00 | 0.00 | 41 | 960.8 | |
| 20260507053030 | 76 | 0.0 | 0.0 | 0.00 | 0.00 | 0.00 | 41 | 960.7 | |
| 20260507052030 | 76 | 0.0 | 0.0 | 0.00 | 0.00 | 0.00 | 42 | 960.4 | |
| 20260507051030 | 76 | 0.0 | 0.0 | 0.00 | 0.00 | 0.00 | 42 | 960.5 | |
| 20260507050030 | 76 | 0.0 | 0.0 | 0.00 | 0.00 | 0.00 | 41 | 960.4 | |
| 20260507045030 | 76 | 0.0 | 0.0 | 0.00 | 0.00 | 0.00 | 41 | 960.2 | |
| 20260507044030 | 76 | 0.0 | 0.0 | 0.00 | 0.00 | 0.00 | 41 | 960.1 | |
| 20260507043030 | 76 | 0.0 | 0.0 | 0.00 | 0.00 | 0.00 | 41 | 960.1 | |
| 20260507042030 | 77 | 0.0 | 0.0 | 0.00 | 0.00 | 0.00 | 40 | 959.9 | |
| 20260507041030 | 77 | 0.0 | 0.0 | 0.00 | 0.00 | 0.00 | 41 | 959.9 | |
| 20260507040030 | 77 | 0.0 | 0.0 | 0.00 | 0.00 | 0.00 | 41 | 959.8 | |
| 20260507035030 | 77 | 0.0 | 0.0 | 0.00 | 0.00 | 0.00 | 40 | 959.7 | |
| 20260507034030 | 77 | 0.0 | 0.0 | 0.00 | 0.00 | 0.00 | 40 | 959.7 | |
| 20260507033030 | 77 | 0.0 | 0.0 | 0.00 | 0.00 | 0.00 | 40 | 959.6 | |
| 20260507032030 | 76 | 0.0 | 0.0 | 0.00 | 0.00 | 0.00 | 41 | 959.7 | |
| 20260507031030 | 76 | 0.0 | 0.0 | 0.00 | 0.00 | 0.00 | 40 | 959.5 | |
| 20260507030030 | 76 | 0.0 | 0.0 | 0.00 | 0.00 | 0.00 | 41 | 959.4 | |
| 20260507025030 | 76 | 0.0 | 0.0 | 0.00 | 0.00 | 0.00 | 41 | 959.4 | |
| 20260507024030 | 76 | 0.0 | 0.0 | 0.00 | 0.00 | 0.00 | 41 | 959.5 | |
| 20260507023030 | 77 | 0.0 | 0.0 | 0.00 | 0.00 | 0.00 | 39 | 959.3 | |
| 20260507022030 | 77 | 0.0 | 0.0 | 0.00 | 0.00 | 0.00 | 40 | 959.3 | |
| 20260507021030 | 76 | 0.0 | 0.0 | 0.00 | 0.00 | 0.00 | 41 | 959.2 | |
| 20260507020030 | 76 | 0.0 | 0.0 | 0.00 | 0.00 | 0.00 | 40 | 959.1 | |
| 20260507015030 | 77 | 0.0 | 0.0 | 0.00 | 0.00 | 0.00 | 40 | 959.1 | |
| 20260507014030 | 77 | 0.0 | 0.0 | 0.00 | 0.00 | 0.00 | 40 | 958.9 | |
| 20260507013030 | 77 | 0.0 | 0.0 | 0.00 | 0.00 | 0.00 | 40 | 958.7 | |
| 20260507012030 | 77 | 0.0 | 0.0 | 0.00 | 0.00 | 0.00 | 39 | 958.7 | |
| 20260507011030 | 77 | 0.0 | 0.0 | 0.00 | 0.00 | 0.00 | 39 | 958.5 | |
| 20260507010030 | 77 | 0.0 | 0.0 | 0.00 | 0.00 | 0.00 | 40 | 958.3 | |
| 20260507005030 | 77 | 0.0 | 0.0 | 0.00 | 0.00 | 0.00 | 40 | 958.6 | |
| 20260507004030 | 77 | 0.0 | 0.0 | 0.00 | 0.00 | 0.00 | 41 | 958.6 | |
| 20260507003030 | 77 | 0.0 | 0.0 | 0.00 | 0.00 | 0.00 | 40 | 958.6 | |
| 20260507002030 | 77 | 0.0 | 0.0 | 0.00 | 0.00 | 0.00 | 40 | 958.5 | |
| 20260507001030 | 77 | 0.0 | 0.0 | 0.00 | 0.00 | 0.00 | 40 | 958.7 | |
| 20260507000030 | 77 | 0.0 | 0.0 | 0.00 | 0.00 | 0.00 | 41 | 959.1 | |
| 20260506235030 | 77 | 0.0 | 0.0 | 0.00 | 0.00 | 0.00 | 40 | 959.1 | |
| 20260506234030 | 77 | 0.0 | 0.0 | 0.00 | 0.00 | 0.00 | 40 | 959.3 | |
| 20260506233030 | 77 | 0.0 | 0.0 | 0.00 | 0.00 | 0.00 | 40 | 959.3 | |
| 20260506232030 | 77 | 0.0 | 0.0 | 0.00 | 0.00 | 0.00 | 41 | 959.4 | |
| 20260506231030 | 77 | 0.0 | 0.0 | 0.00 | 0.00 | 0.00 | 41 | 959.3 | |
| 20260506230030 | 77 | 0.0 | 0.0 | 0.00 | 0.00 | 0.00 | 41 | 959.5 |